| time (UTC) | temp F | wind direction | speed MPH | gust MPH | rain 1hr in | rain 24hr in | rain mn in | humidity % | barometer mb |
| 20260903062036 | 72 | 0.0 | 1.0 | 0.00 | 0.28 | 0.00 | 7 | 1012.1 | |
| 20260903061016 | 72 | 0.0 | 0.0 | 0.00 | 0.28 | 0.00 | 8 | 1012.1 | |
| 20260903060016 | 72 | 0.0 | 0.0 | 0.00 | 0.28 | 0.00 | 10 | 1012.0 | |
| 20260903055016 | 72 | 0.0 | 1.0 | 0.00 | 0.28 | 0.00 | 11 | 1012.0 | |
| 20260903054016 | 72 | 0.0 | 2.0 | 0.00 | 0.28 | 0.00 | 9 | 1012.0 | |
| 20260903053016 | 72 | 0.0 | 1.0 | 0.00 | 0.28 | 0.00 | 6 | 1012.0 | |
| 20260903052016 | 72 | 0.0 | 0.0 | 0.00 | 0.28 | 0.00 | 1 | 1012.0 | |
| 20260903051056 | 73 | 0.0 | 0.0 | 0.00 | 0.28 | 0.00 | 8 | 1012.0 | |
| 20260903050016 | 73 | 0.0 | 0.0 | 0.00 | 0.28 | 0.28 | 17 | 1012.1 | |
| 20260903045016 | 73 | 0.0 | 0.0 | 0.00 | 0.28 | 0.28 | 24 | 1012.2 | |
| 20260903044017 | 73 | 0.0 | 0.0 | 0.00 | 0.28 | 0.28 | 22 | 1012.1 | |
| 20260903043017 | 73 | 0.0 | 0.0 | 0.00 | 0.28 | 0.28 | 26 | 1012.0 | |
| 20260903042017 | 74 | 0.0 | 1.0 | 0.00 | 0.28 | 0.28 | 27 | 1012.0 | |
| 20260903041017 | 74 | 0.0 | 0.0 | 0.00 | 0.28 | 0.28 | 24 | 1012.0 | |
| 20260903040016 | 74 | 0.0 | 0.0 | 0.00 | 0.28 | 0.28 | 26 | 1012.0 | |
| 20260903035036 | 74 | 0.0 | 0.0 | 0.00 | 0.28 | 0.28 | 25 | 1012.1 | |
| 20260903034016 | 74 | 0.0 | 0.0 | 0.00 | 0.28 | 0.28 | 30 | 1012.2 | |
| 20260903033017 | 74 | 0.0 | 0.0 | 0.00 | 0.28 | 0.28 | 35 | 1012.1 | |
| 20260903032017 | 74 | 0.0 | 0.0 | 0.00 | 0.28 | 0.28 | 40 | 1012.1 | |
| 20260903031017 | 74 | 0.0 | 0.0 | 0.00 | 0.28 | 0.28 | 41 | 1012.1 | |
| 20260903030017 | 74 | 0.0 | 0.0 | 0.00 | 0.28 | 0.28 | 48 | 1012.0 | |
| 20260903025017 | 75 | 0.0 | 0.0 | 0.00 | 0.28 | 0.28 | 56 | 1012.1 | |
| 20260903024017 | 75 | 0.0 | 0.0 | 0.00 | 0.28 | 0.28 | 58 | 1012.1 | |
| 20260903023017 | 75 | 0.0 | 0.0 | 0.00 | 0.28 | 0.28 | 59 | 1012.0 | |
| 20260903022017 | 75 | 0.0 | 0.0 | 0.00 | 0.28 | 0.28 | 61 | 1011.9 | |
| 20260903021017 | 76 | 0.0 | 0.0 | 0.00 | 0.28 | 0.28 | 64 | 1011.9 | |
| 20260903020017 | 76 | 0.0 | 0.0 | 0.00 | 0.28 | 0.28 | 67 | 1011.8 | |
| 20260903015017 | 76 | 0.0 | 0.0 | 0.00 | 0.28 | 0.28 | 69 | 1011.7 | |
| 20260903014016 | 77 | 0.0 | 0.0 | 0.00 | 0.28 | 0.28 | 71 | 1011.5 | |
| 20260903013017 | 77 | 0.0 | 0.0 | 0.00 | 0.28 | 0.28 | 72 | 1011.5 | |
| 20260903012017 | 78 | 0.0 | 0.0 | 0.00 | 0.28 | 0.28 | 73 | 1011.5 | |
| 20260903011037 | 78 | 0.0 | 0.0 | 0.00 | 0.28 | 0.28 | 73 | 1011.4 | |
| 20260903010016 | 79 | 0.0 | 0.0 | 0.00 | 0.28 | 0.28 | 73 | 1011.3 | |
| 20260903005016 | 80 | 0.0 | 0.0 | 0.00 | 0.28 | 0.28 | 73 | 1011.4 | |
| 20260903004016 | 81 | 0.0 | 0.0 | 0.00 | 0.28 | 0.28 | 72 | 1011.3 | |
| 20260903003036 | 82 | 0.0 | 0.0 | 0.00 | 0.28 | 0.28 | 71 | 1011.4 | |
| 20260903002016 | 83 | 0.0 | 0.0 | 0.00 | 0.28 | 0.28 | 68 | 1011.4 | |
| 20260903001017 | 85 | 0.0 | 0.0 | 0.00 | 0.28 | 0.28 | 65 | 1011.5 | |
| 20260903000037 | 85 | 0.0 | 0.0 | 0.00 | 0.28 | 0.28 | 63 | 1011.4 | |
| 20260902235016 | 86 | 0.0 | 2.0 | 0.00 | 0.28 | 0.28 | 61 | 1011.5 | |
| 20260902234057 | 88 | 0.0 | 2.0 | 0.00 | 0.28 | 0.28 | 60 | 1011.5 | |
| 20260902233017 | 89 | 0.0 | 3.0 | 0.00 | 0.28 | 0.28 | 57 | 1011.5 | |
| 20260902232017 | 89 | 0.0 | 3.0 | 0.00 | 0.28 | 0.28 | 57 | 1011.5 | |
| 20260902231016 | 89 | 0.0 | 1.0 | 0.00 | 0.28 | 0.28 | 57 | 1011.4 | |
| 20260902230016 | 89 | 0.0 | 3.0 | 0.00 | 0.28 | 0.28 | 56 | 1011.4 | |
| 20260902225016 | 90 | 203 | 1.0 | 3.0 | 0.00 | 0.28 | 0.28 | 55 | 1011.4 |
| 20260902224016 | 90 | 0.0 | 2.0 | 0.00 | 0.28 | 0.28 | 54 | 1011.4 | |
| 20260902223036 | 89 | 0.0 | 0.0 | 0.00 | 0.28 | 0.28 | 56 | 1011.3 | |
| 20260902222016 | 89 | 0.0 | 2.0 | 0.00 | 0.28 | 0.28 | 56 | 1011.2 | |
| 20260902221116 | 88 | 225 | 1.0 | 3.0 | 0.00 | 0.28 | 0.28 | 56 | 1011.3 |
| 20260902220017 | 87 | 0.0 | 2.0 | 0.00 | 0.28 | 0.28 | 56 | 1011.2 | |
| 20260902215016 | 88 | 0.0 | 2.0 | 0.00 | 0.28 | 0.28 | 55 | 1011.2 | |
| 20260902214017 | 87 | 0.0 | 2.0 | 0.00 | 0.28 | 0.28 | 57 | 1011.3 | |
| 20260902213016 | 87 | 0.0 | 3.0 | 0.00 | 0.28 | 0.28 | 57 | 1011.5 | |
| 20260902212036 | 88 | 0.0 | 1.0 | 0.00 | 0.28 | 0.28 | 57 | 1011.6 | |
| 20260902211037 | 87 | 0.0 | 3.0 | 0.00 | 0.28 | 0.28 | 58 | 1011.7 | |
| 20260902210017 | 87 | 203 | 1.0 | 3.0 | 0.00 | 0.28 | 0.28 | 59 | 1011.8 |
| 20260902205017 | 88 | 203 | 1.0 | 5.0 | 0.00 | 0.28 | 0.28 | 57 | 1011.9 |
| 20260902204017 | 87 | 0.0 | 1.0 | 0.00 | 0.28 | 0.28 | 57 | 1012.0 | |
| 20260902203036 | 86 | 0.0 | 2.0 | 0.00 | 0.28 | 0.28 | 59 | 1012.0 | |
| 20260902202016 | 86 | 0.0 | 2.0 | 0.00 | 0.28 | 0.28 | 59 | 1012.1 | |
| 20260902201016 | 86 | 225 | 2.0 | 5.0 | 0.00 | 0.28 | 0.28 | 59 | 1012.2 |
| 20260902200016 | 86 | 23 | 1.0 | 2.0 | 0.00 | 0.28 | 0.28 | 58 | 1012.1 |
| 20260902195016 | 86 | 203 | 1.0 | 4.0 | 0.00 | 0.28 | 0.28 | 58 | 1012.2 |
| 20260902194016 | 85 | 0.0 | 2.0 | 0.00 | 0.28 | 0.28 | 61 | 1012.2 | |
| 20260902193016 | 86 | 248 | 1.0 | 3.0 | 0.00 | 0.28 | 0.28 | 60 | 1012.3 |
| 20260902192016 | 84 | 248 | 1.0 | 4.0 | 0.00 | 0.28 | 0.28 | 63 | 1012.4 |
| 20260902191016 | 84 | 248 | 1.0 | 4.0 | 0.00 | 0.28 | 0.28 | 64 | 1012.6 |
| 20260902190016 | 84 | 248 | 1.0 | 6.0 | 0.00 | 0.28 | 0.28 | 62 | 1012.6 |
| 20260902185016 | 83 | 293 | 1.0 | 5.0 | 0.00 | 0.28 | 0.28 | 64 | 1012.8 |
| 20260902184016 | 83 | 225 | 1.0 | 3.0 | 0.00 | 0.28 | 0.28 | 65 | 1012.9 |
| 20260902183016 | 83 | 270 | 1.0 | 4.0 | 0.00 | 0.28 | 0.28 | 65 | 1012.9 |
| 20260902182016 | 83 | 0.0 | 3.0 | 0.00 | 0.28 | 0.28 | 65 | 1012.9 | |
| 20260902181017 | 83 | 248 | 1.0 | 5.0 | 0.00 | 0.28 | 0.28 | 63 | 1013.0 |
| 20260902180017 | 82 | 248 | 2.0 | 6.0 | 0.00 | 0.28 | 0.28 | 67 | 1013.1 |
| 20260902175037 | 81 | 113 | 1.0 | 3.0 | 0.00 | 0.28 | 0.28 | 67 | 1013.2 |
| 20260902174016 | 81 | 180 | 1.0 | 4.0 | 0.00 | 0.28 | 0.28 | 67 | 1013.2 |
| 20260902173016 | 79 | 248 | 2.0 | 6.0 | 0.00 | 0.28 | 0.28 | 69 | 1013.3 |
| 20260902172016 | 79 | 0.0 | 2.0 | 0.00 | 0.28 | 0.28 | 71 | 1013.6 | |
| 20260902171017 | 79 | 0.0 | 2.0 | 0.00 | 0.28 | 0.28 | 71 | 1013.6 | |
| 20260902170016 | 79 | 0.0 | 3.0 | 0.00 | 0.28 | 0.28 | 70 | 1013.6 | |
| 20260902165036 | 78 | 0.0 | 2.0 | 0.00 | 0.28 | 0.28 | 72 | 1013.5 | |
| 20260902164016 | 78 | 0.0 | 2.0 | 0.00 | 0.28 | 0.28 | 72 | 1013.6 | |
| 20260902163016 | 78 | 0.0 | 2.0 | 0.00 | 0.28 | 0.28 | 71 | 1013.6 | |
| 20260902162016 | 77 | 0.0 | 2.0 | 0.00 | 0.28 | 0.28 | 73 | 1013.4 | |
| 20260902161016 | 76 | 0.0 | 1.0 | 0.00 | 0.28 | 0.28 | 74 | 1013.5 | |
| 20260902160036 | 75 | 0.0 | 2.0 | 0.00 | 0.28 | 0.28 | 74 | 1013.5 | |
| 20260902155016 | 74 | 248 | 1.0 | 4.0 | 0.00 | 0.28 | 0.28 | 75 | 1013.4 |
| 20260902154016 | 73 | 0.0 | 1.0 | 0.00 | 0.28 | 0.28 | 74 | 1013.2 | |
| 20260902153117 | 72 | 90 | 1.0 | 4.0 | 0.00 | 0.28 | 0.28 | 74 | 1013.3 |
| 20260902152036 | 73 | 113 | 1.0 | 3.0 | 0.00 | 0.28 | 0.28 | 73 | 1013.4 |
| 20260902151016 | 72 | 0.0 | 1.0 | 0.00 | 0.28 | 0.28 | 68 | 1013.4 | |
| 20260902150037 | 71 | 90 | 1.0 | 4.0 | 0.00 | 0.28 | 0.28 | 71 | 1013.4 |
| 20260902145016 | 72 | 135 | 1.0 | 4.0 | 0.00 | 0.28 | 0.28 | 72 | 1013.6 |
| 20260902144016 | 71 | 0.0 | 2.0 | 0.00 | 0.28 | 0.28 | 68 | 1013.9 | |
| 20260902143016 | 70 | 0.0 | 5.0 | 0.00 | 0.28 | 0.28 | 65 | 1013.8 | |
| 20260902142016 | 70 | 90 | 1.0 | 3.0 | 0.00 | 0.28 | 0.28 | 68 | 1013.8 |
| 20260902141136 | 70 | 0.0 | 1.0 | 0.00 | 0.28 | 0.28 | 62 | 1013.7 | |
| 20260902140016 | 69 | 0.0 | 1.0 | 0.00 | 0.28 | 0.28 | 55 | 1014.0 | |
| 20260902135016 | 68 | 0.0 | 2.0 | 0.00 | 0.28 | 0.28 | 1 | 1013.5 | |
| 20260902134016 | 67 | 0.0 | 0.0 | 0.00 | 0.28 | 0.28 | 1 | 1013.0 | |
| 20260902133016 | 65 | 0.0 | 1.0 | 0.00 | 0.28 | 0.28 | 1 | 1012.9 | |
| 20260902132016 | 65 | 0.0 | 0.0 | 0.00 | 0.28 | 0.28 | 1 | 1012.8 | |
| 20260902131016 | 65 | 0.0 | 1.0 | 0.00 | 0.28 | 0.28 | 1 | 1012.8 | |
| 20260902130016 | 65 | 0.0 | 2.0 | 0.00 | 0.28 | 0.28 | 1 | 1012.7 | |
| 20260902125016 | 65 | 0.0 | 1.0 | 0.00 | 0.28 | 0.28 | 1 | 1013.2 | |
| 20260902124036 | 65 | 0.0 | 0.0 | 0.00 | 0.28 | 0.28 | 1 | 1013.6 | |
| 20260902123016 | 65 | 0.0 | 2.0 | 0.00 | 0.28 | 0.28 | 1 | 1014.0 | |
| 20260902122016 | 65 | 0.0 | 0.0 | 0.00 | 0.28 | 0.28 | 1 | 1014.1 | |
| 20260902121016 | 65 | 0.0 | 0.0 | 0.00 | 0.28 | 0.28 | 1 | 1014.3 | |
| 20260902120016 | 65 | 0.0 | 1.0 | 0.00 | 0.28 | 0.28 | 1 | 1014.7 | |
| 20260902115016 | 65 | 0.0 | 1.0 | 0.00 | 0.28 | 0.28 | 1 | 1014.4 | |
| 20260902114016 | 65 | 0.0 | 2.0 | 0.00 | 0.28 | 0.28 | 1 | 1014.8 | |
| 20260902113016 | 65 | 0.0 | 4.0 | 0.00 | 0.28 | 0.28 | 1 | 1015.0 | |
| 20260902112016 | 65 | 203 | 2.0 | 7.0 | 0.00 | 0.28 | 0.28 | 1 | 1015.1 |
| 20260902111016 | 65 | 135 | 1.0 | 5.0 | 0.00 | 0.28 | 0.28 | 1 | 1014.3 |
| 20260902110016 | 66 | 0.0 | 1.0 | 0.00 | 0.28 | 0.28 | 1 | 1013.9 | |
| 20260902105016 | 66 | 0.0 | 1.0 | 0.00 | 0.28 | 0.28 | 1 | 1013.5 | |
| 20260902104036 | 66 | 0.0 | 1.0 | 0.00 | 0.28 | 0.28 | 1 | 1013.4 | |
| 20260902103016 | 66 | 338 | 1.0 | 2.0 | 0.00 | 0.28 | 0.28 | 1 | 1012.8 |
| 20260902102016 | 66 | 0.0 | 1.0 | 0.02 | 0.28 | 0.28 | 1 | 1013.0 | |
| 20260902101016 | 66 | 0.0 | 0.0 | 0.03 | 0.28 | 0.28 | 1 | 1013.4 | |
| 20260902100016 | 66 | 0.0 | 2.0 | 0.05 | 0.28 | 0.28 | 1 | 1013.4 | |
| 20260902095016 | 67 | 203 | 1.0 | 5.0 | 0.07 | 0.28 | 0.28 | 1 | 1013.3 |
| 20260902094016 | 67 | 90 | 1.0 | 3.0 | 0.08 | 0.28 | 0.28 | 1 | 1013.6 |
| 20260902093016 | 67 | 0.0 | 1.0 | 0.08 | 0.28 | 0.28 | 1 | 1014.7 | |
| 20260902092016 | 67 | 0.0 | 1.0 | 0.08 | 0.26 | 0.26 | 1 | 1013.9 | |
| 20260902091036 | 67 | 0.0 | 1.0 | 0.11 | 0.25 | 0.25 | 1 | 1014.0 | |
| 20260902090016 | 67 | 0.0 | 2.0 | 0.13 | 0.23 | 0.23 | 1 | 1013.2 | |
| 20260902085016 | 67 | 203 | 2.0 | 6.0 | 0.15 | 0.21 | 0.21 | 1 | 1012.9 |
| 20260902084036 | 66 | 90 | 1.0 | 7.0 | 0.15 | 0.20 | 0.20 | 1 | 1010.9 |
| 20260902083036 | 67 | 68 | 2.0 | 5.0 | 0.16 | 0.20 | 0.20 | 1 | 1011.6 |
| 20260902082016 | 68 | 68 | 1.0 | 3.0 | 0.16 | 0.18 | 0.18 | 8 | 1014.7 |
| 20260902081016 | 68 | 225 | 2.0 | 9.0 | 0.13 | 0.14 | 0.14 | 22 | 1017.6 |
| 20260902080016 | 69 | 225 | 6.0 | 17.0 | 0.10 | 0.10 | 0.10 | 20 | 1018.8 |
| 20260902075016 | 70 | 248 | 3.0 | 11.0 | 0.06 | 0.06 | 0.06 | 5 | 1017.9 |
| 20260902074016 | 70 | 0.0 | 0.0 | 0.05 | 0.05 | 0.05 | 1 | 1015.2 | |
| 20260902073016 | 70 | 0.0 | 0.0 | 0.04 | 0.04 | 0.04 | 1 | 1014.5 | |
| 20260902072016 | 71 | 0.0 | 0.0 | 0.02 | 0.02 | 0.02 | 1 | 1014.0 | |
| 20260902071016 | 71 | 0.0 | 0.0 | 0.01 | 0.01 | 0.01 | 1 | 1013.9 | |
| 20260902070016 | 71 | 0.0 | 0.0 | 0.00 | 0.00 | 0.00 | 1 | 1013.3 | |
| 20260902065016 | 71 | 0.0 | 0.0 | 0.00 | 0.00 | 0.00 | 5 | 1013.6 | |
| 20260902064016 | 71 | 0.0 | 0.0 | 0.00 | 0.00 | 0.00 | 13 | 1013.6 | |
| 20260902063016 | 71 | 0.0 | 0.0 | 0.00 | 0.00 | 0.00 | 17 | 1013.1 |